Weather History for Valentine, NE

Change the Weather History Date:

Wednesday, December 26, 2012

  Actual Average Record
Temperature  
Mean Temperature 11 °F 23 °F  
Max Temperature 19 °F 36 °F 60 °F (1889)
Min Temperature 2 °F 10 °F -25 °F (1996)
Degree Days  
Heating Degree Days 54 42  
Month to date heating degree days 921 1065  
Since 1 July heating degree days 2422 2683  
Cooling Degree Days 0 0  
Month to date cooling degree days 0 0  
Year to date cooling degree days 1303 821  
Moisture  
Dew Point 6 °F    
Average Humidity 78    
Maximum Humidity 88    
Minimum Humidity 67    
Precipitation  
Precipitation T in 0.02 in 0.16 in (1939)
Month to date precipitation 0.24 0.32  
Year to date precipitation 10.63 19.97  
Snow  
Snow T in 0.20 in 2.40 in (1939)
Month to date snowfall 1.1 4.3  
Since 1 July snowfall 11.8 11.9  
Snow Depth T in    
Sea Level Pressure  
Sea Level Pressure 30.17 in    
Wind  
Wind Speed 10 mph (SSE)    
Max Wind Speed 17 mph    
Max Gust Speed 22 mph    
Visibility 10 miles    
Events Snow    
T = Trace of Precipitation, MM = Missing Value Source: NWS Daily Summary

Daily Weather History Graph

Daily Weather History Graph

Search for Another Location

Airport:

Trip Planner

Search our weather history database for the weather conditions in past years. The results will help you decide how hot, cold, wet, or windy it might be!

Date:

Astronomy

Dec. 26, 2012 Rise Set
Actual Time 8:12 AM CST 5:14 PM CST
Civil Twilight 7:39 AM CST 5:46 PM CST
Nautical Twilight 7:03 AM CST 6:22 PM CST
Astronomical Twilight 6:29 AM CST 6:56 PM CST
Moon 4:09 PM CST (12/26) 6:36 AM CST (12/26)
Length of Visible Light 10h 06m
Length of Day
9h 02m
Waxing Gibbous, 97% of the Moon is Illuminated
Dec 26
Waxing Gibbous
Dec 28
Full
Jan 4
Last Quarter
Jan 11
New
Jan 18
First Quarter

Hourly Weather History & Observations

Time (CST) Temp. Windchill Dew Point Humidity Pressure Visibility Wind Dir Wind Speed Gust Speed Precip Events Conditions
12:52 AM 12.0 °F 4.1 °F 7.0 °F 80% 30.33 in 6.0 mi SSE 4.6 mph - 0.00 in Snow Light Snow
1:52 AM 12.0 °F 1.5 °F 7.0 °F 80% 30.30 in 10.0 mi South 6.9 mph - 0.00 in   Overcast
2:52 AM 8.1 °F -6.2 °F 3.0 °F 80% 30.29 in 10.0 mi South 10.4 mph - N/A   Clear
3:52 AM 7.0 °F -9.1 °F 3.0 °F 84% 30.28 in 10.0 mi South 12.7 mph - N/A   Clear
4:52 AM 5.0 °F -10.0 °F -0.0 °F 80% 30.27 in 10.0 mi SSE 10.4 mph - N/A   Clear
5:52 AM 3.9 °F -9.4 °F -0.0 °F 84% 30.28 in 10.0 mi South 8.1 mph - N/A   Clear
6:52 AM 3.9 °F - -0.9 °F 80% 30.27 in 10.0 mi Calm Calm - N/A   Clear
7:52 AM 3.0 °F -8.0 °F -0.9 °F 84% 30.25 in 10.0 mi South 5.8 mph - N/A   Clear
8:52 AM 5.0 °F -5.6 °F -0.0 °F 80% 30.22 in 10.0 mi SSE 5.8 mph - N/A   Clear
9:52 AM 9.0 °F -4.2 °F 3.9 °F 80% 30.22 in 10.0 mi South 9.2 mph - N/A   Clear
10:52 AM 14.0 °F -1.4 °F 7.0 °F 74% 30.21 in 10.0 mi SSW 15.0 mph - N/A   Clear
11:52 AM 15.1 °F 1.1 °F 7.0 °F 70% 30.18 in 10.0 mi SSW 12.7 mph - N/A   Clear
12:52 PM 16.0 °F 2.9 °F 8.1 °F 71% 30.14 in 10.0 mi South 11.5 mph - N/A   Clear
1:52 PM 17.1 °F 3.6 °F 9.0 °F 71% 30.11 in 10.0 mi South 12.7 mph - N/A   Scattered Clouds
2:52 PM 19.0 °F 6.1 °F 10.9 °F 71% 30.09 in 10.0 mi SSE 12.7 mph - N/A   Overcast
3:52 PM 18.0 °F 5.4 °F 10.0 °F 71% 30.08 in 10.0 mi SSE 11.5 mph - N/A   Overcast
4:52 PM 18.0 °F 4.8 °F 10.0 °F 71% 30.10 in 10.0 mi SSE 12.7 mph - N/A   Overcast
5:52 PM 15.1 °F -0.1 °F 8.1 °F 74% 30.10 in 10.0 mi SSE 15.0 mph - N/A   Partly Cloudy
6:52 PM 15.1 °F 1.8 °F 8.1 °F 74% 30.10 in 10.0 mi SE 11.5 mph - N/A   Partly Cloudy
7:52 PM 15.1 °F 3.3 °F 8.1 °F 74% 30.10 in 10.0 mi SSE 9.2 mph - N/A   Clear
8:52 PM 15.8 °F 2.7 °F 8.6 °F 73% 29.92 in 10.0 mi SSE 11.5 mph - N/A   Mostly Cloudy
9:52 PM 14.0 °F -0.2 °F 7.0 °F 74% 30.08 in 10.0 mi South 12.7 mph - N/A   Clear
10:52 PM 15.1 °F -0.1 °F 7.0 °F 70% 30.07 in 10.0 mi South 15.0 mph - N/A   Overcast
11:52 PM 15.1 °F 2.5 °F 6.1 °F 68% 30.06 in 10.0 mi South 10.4 mph - N/A   Overcast